Location: *
(40.7190°N, 4.2480°W)
Time: 07:45:34
(UTC+00:00)

Cosmos 1943 - Pass Details

Date: 18 February 2020
Orbit: 832 x 851 km, 71.0° (Epoch: 30 March)

Event Time Altitude Azimuth Distance (km) Brightness Sun altitude
Rises 06:25:31 0° 227° (SW) 3,365 6.0 -8.7°
Reaches altitude 10° 06:28:08 10° 235° (SW) 2,436 5.2 -8.2°
Maximum altitude 06:33:15 36° 302° (WNW) 1,304 3.8 -7.2°
Drops below altitude 10° 06:38:24 10° 8° (N) 2,457 5.6 -6.3°
Sets 06:41:04 0° 17° (NNE) 3,398 6.4 -5.8°
